Home > Time Zones > World Clock > Weather > U.S.A. > Adak > Past weeks

Flag for U.S.A. Weather past 2 weeks in Adak, Alaska, U.S.A.

Now
39 °F

Overcast.


Feels Like: 32 °F
Forecast: 35 / 42 °F
Wind: 13 mph from North

Location: Adak


UV Index: 0 (Low)

Visibility: 10 mi


Pressure: 29.70 "Hg

Humidity: 65%

Dew point: 28 °F

Location of AdakLocation

Historic Weather in Adak

°F

Adak temperature yesterday

Maximum temperature yesterday: 39 °F (at 11:56 AM)
Minimum temperature yesterday: 27 °F (at 5:36 AM)
Average temperature yesterday: 35 °F

Past Weeks' High & Low Weather Summary

 TemperatureHumidityPressure
High45 °F (Apr 8, 2:36 PM)93% (Apr 7, 8:56 AM)30.03 "Hg (Apr 7, 8:56 AM)
Low27 °F (Apr 6, 6:16 AM)52% (Apr 5, 5:36 PM)29.07 "Hg (Apr 3, 4:16 PM)
Average37 °F78%29.49 "Hg
* Reported Apr 3 4:16 PM — Apr 18 4:56 PM, Adak, Weather by CustomWeather, © 2014

Note: Actual official high and low records may vary slightly from our data, if they occured in-between our weather recording intervals... More about our weather records

Advertising

Historic Weather Conditions — Data for Previous 24 hours

 ConditionsComfort  
Time TempWeatherWind HumidityBarometerVisibility
4:56 PM
Apr 18
37 °FPartly sunny.16 mph75%29.69 "Hg10 mi
4:36 PM37 °FScattered clouds.15 mph70%29.68 "Hg10 mi
4:16 PM37 °FScattered clouds.16 mph70%29.68 "Hg10 mi
3:56 PM37 °FPassing clouds.16 mph75%29.67 "Hg10 mi
3:36 PM37 °FScattered clouds.18 mph75%29.66 "Hg10 mi
3:16 PM39 °FBroken clouds.16 mph70%29.66 "Hg10 mi
2:56 PM39 °FPartly sunny.18 mph70%29.65 "Hg10 mi
2:36 PM39 °FPartly sunny.17 mph75%29.65 "Hg10 mi
2:16 PM39 °FBroken clouds.15 mph81%29.64 "Hg10 mi
1:56 PM37 °FScattered clouds.18 mph81%29.63 "Hg9 mi
1:36 PM37 °FScattered clouds.17 mph81%29.63 "Hg10 mi
1:16 PM39 °FBroken clouds.15 mph75%29.63 "Hg10 mi
12:56 PM37 °FBroken clouds.7 mph87%29.62 "Hg7 mi
12:36 PM39 °FMostly cloudy.5 mph75%29.62 "Hg10 mi
12:16 PM37 °FBroken clouds.7 mph87%29.61 "Hg10 mi
11:56 AM36 °FBroken clouds.9 mph81%29.61 "Hg3 mi
11:36 AM36 °FCloudy.3 mph87%29.60 "Hg5 mi
11:16 AM37 °FCloudy.14 mph75%29.60 "Hg6 mi
10:56 AM37 °FOvercast.6 mph87%29.59 "Hg10 mi
10:36 AM36 °FCloudy.7 mph87%29.59 "Hg10 mi
10:16 AM36 °FMore clouds than sun.15 mph75%29.58 "Hg10 mi
9:56 AM36 °FPartly sunny.9 mph75%29.58 "Hg10 mi
9:36 AM36 °FPassing clouds.8 mph75%29.57 "Hg10 mi
9:16 AM36 °FScattered clouds.12 mph75%29.57 "Hg10 mi
8:56 AM36 °FScattered clouds.7 mph70%29.56 "Hg10 mi
8:36 AM36 °FPassing clouds.10 mph75%29.56 "Hg10 mi
8:16 AM34 °FPassing clouds.15 mph81%29.55 "Hg10 mi
7:56 AM34 °FPassing clouds.13 mph75%29.55 "Hg10 mi
7:36 AM34 °FPassing clouds.10 mph81%29.54 "Hg10 mi
7:16 AM34 °FPassing clouds.9 mph81%29.54 "Hg10 mi
6:56 AM34 °FPartly cloudy.9 mph81%29.54 "Hg10 mi
6:36 AM34 °FPassing clouds.10 mph81%29.53 "Hg10 mi
5:56 AM36 °FMostly cloudy.12 mph75%29.53 "Hg10 mi
5:36 AM36 °FMostly cloudy.7 mph75%29.52 "Hg10 mi
5:16 AM36 °FOvercast.6 mph75%29.53 "Hg10 mi
4:56 AM34 °FMostly cloudy.8 mph81%29.52 "Hg10 mi
4:36 AM34 °FPartly cloudy.No wind87%29.52 "Hg10 mi
4:16 AM34 °FMostly cloudy.10 mph87%29.52 "Hg7 mi
3:56 AM34 °FPartly cloudy.3 mph87%29.52 "Hg10 mi
3:36 AM34 °FPartly cloudy.6 mph81%29.53 "Hg10 mi
3:16 AM34 °FPassing clouds.3 mph81%29.52 "Hg10 mi
2:56 AM34 °FPassing clouds.No wind87%29.53 "Hg10 mi
2:36 AM34 °FPassing clouds.3 mph87%29.53 "Hg10 mi
2:16 AM34 °FPassing clouds.No wind87%29.53 "Hg10 mi
1:56 AM34 °FMostly cloudy.3 mph87%29.53 "Hg10 mi
1:36 AM34 °FMostly cloudy.6 mph87%29.53 "Hg10 mi
1:16 AM34 °FPartly cloudy.5 mph87%29.52 "Hg10 mi
12:56 AM34 °FMostly cloudy.3 mph87%29.52 "Hg10 mi
12:36 AM36 °FPartly cloudy.5 mph81%29.52 "Hg10 mi
12:16 AM34 °FMostly cloudy.6 mph87%29.52 "Hg10 mi
11:56 PM
Apr 17
36 °FOvercast.8 mph81%29.52 "Hg10 mi
11:36 PM36 °FPartly cloudy.3 mph81%29.52 "Hg10 mi
11:16 PM36 °FPartly cloudy.5 mph81%29.52 "Hg10 mi
10:56 PM36 °FPartly cloudy.3 mph81%29.52 "Hg10 mi
10:36 PM36 °FCloudy.5 mph81%29.51 "Hg10 mi
10:16 PM36 °FCloudy.3 mph81%29.51 "Hg10 mi
9:56 PM36 °FCloudy.5 mph81%29.51 "Hg7 mi
9:36 PM36 °FMostly cloudy.3 mph81%29.51 "Hg10 mi
9:16 PM36 °FCloudy.No wind81%29.50 "Hg10 mi
8:56 PM36 °FMore clouds than sun.5 mph87%29.50 "Hg10 mi
8:36 PM37 °FMostly cloudy.14 mph81%29.50 "Hg10 mi
8:16 PM37 °FCloudy.6 mph75%29.50 "Hg10 mi
7:56 PM37 °FBroken clouds.5 mph75%29.50 "Hg10 mi
7:36 PM37 °FPartly sunny.5 mph75%29.50 "Hg10 mi
7:16 PM37 °FMostly cloudy.9 mph87%29.49 "Hg9 mi
6:56 PM37 °FPartly sunny.10 mph75%29.49 "Hg10 mi
6:36 PM39 °FScattered clouds.16 mph70%29.49 "Hg10 mi
6:16 PM39 °FScattered clouds.13 mph70%29.49 "Hg10 mi
Weather by CustomWeather, © 2014

See weather overview